TimeCDT,TemperatureF,Dew PointF,Humidity,Sea Level PressureIn,VisibilityMPH,Wind Direction,Wind SpeedMPH,Gust SpeedMPH,PrecipitationIn,Events,Conditions,WindDirDegrees,DateUTC
12:52 AM,46.9,42.1,83,29.96,8.0,WSW,5.8,-,N/A,,Clear,240,2012-03-13 05:52:00
1:52 AM,46.9,43.0,86,29.98,8.0,WSW,8.1,-,N/A,,Clear,240,2012-03-13 06:52:00
2:52 AM,46.0,42.1,86,29.99,7.0,West,8.1,-,N/A,,Clear,260,2012-03-13 07:52:00
3:52 AM,46.0,42.1,86,30.00,6.0,West,9.2,-,N/A,,Clear,270,2012-03-13 08:52:00
4:52 AM,42.1,39.0,89,30.03,4.0,WNW,5.8,-,N/A,,Clear,290,2012-03-13 09:52:00
5:52 AM,41.0,37.9,89,30.05,2.5,West,3.5,-,N/A,,Clear,280,2012-03-13 10:52:00
6:05 AM,39.2,37.4,93,30.04,1.2,West,3.5,-,N/A,,Clear,260,2012-03-13 11:05:00
6:16 AM,39.2,37.4,93,30.04,0.2,WSW,3.5,-,N/A,Fog,Fog,240,2012-03-13 11:16:00
6:40 AM,39.2,37.4,93,30.05,1.0,West,3.5,-,N/A,,Clear,260,2012-03-13 11:40:00
6:52 AM,39.0,36.0,89,30.06,0.5,Calm,Calm,-,N/A,Fog,Fog,0,2012-03-13 11:52:00
7:14 AM,35.6,33.8,93,30.06,0.2,WNW,3.5,-,N/A,Fog,Fog,290,2012-03-13 12:14:00
7:43 AM,35.6,33.8,93,30.06,0.2,West,3.5,-,N/A,Fog,Fog,270,2012-03-13 12:43:00
7:52 AM,34.0,33.1,96,30.08,0.2,Calm,Calm,-,N/A,Fog,Fog,0,2012-03-13 12:52:00
8:48 AM,42.8,39.2,87,30.08,1.0,Calm,Calm,-,N/A,,Mist,0,2012-03-13 13:48:00
8:49 AM,42.1,39.9,92,30.09,1.0,Calm,Calm,-,N/A,,Mist,0,2012-03-13 13:49:00
8:57 AM,44.6,41.0,87,30.09,1.8,Calm,Calm,-,N/A,,Clear,0,2012-03-13 13:57:00
9:04 AM,44.6,42.8,93,30.09,2.5,Calm,Calm,-,N/A,,Clear,0,2012-03-13 14:04:00
9:11 AM,46.4,42.8,87,30.09,4.0,Calm,Calm,-,N/A,,Clear,0,2012-03-13 14:11:00
9:52 AM,52.0,45.0,77,30.12,9.0,Calm,Calm,-,N/A,,Clear,0,2012-03-13 14:52:00
10:52 AM,57.9,42.1,56,30.12,10.0,SE,5.8,-,N/A,,Clear,140,2012-03-13 15:52:00
11:52 AM,62.1,34.0,35,30.12,10.0,SE,3.5,-,N/A,,Clear,130,2012-03-13 16:52:00
12:52 PM,66.0,28.0,24,30.10,10.0,ESE,6.9,-,N/A,,Clear,120,2012-03-13 17:52:00
1:52 PM,66.9,32.0,27,30.08,10.0,SE,6.9,-,N/A,,Clear,140,2012-03-13 18:52:00
2:52 PM,69.1,33.1,26,30.05,10.0,SE,8.1,-,N/A,,Clear,130,2012-03-13 19:52:00
3:52 PM,70.0,34.0,27,30.04,10.0,SSE,9.2,-,N/A,,Clear,150,2012-03-13 20:52:00
4:52 PM,70.0,37.9,31,30.02,10.0,SSE,11.5,-,N/A,,Clear,150,2012-03-13 21:52:00
5:52 PM,69.1,42.1,38,30.01,10.0,SE,11.5,-,N/A,,Clear,140,2012-03-13 22:52:00
6:52 PM,63.0,44.1,50,30.01,10.0,SSE,10.4,-,N/A,,Clear,150,2012-03-13 23:52:00
7:52 PM,59.0,42.1,53,30.03,10.0,ESE,6.9,-,N/A,,Clear,110,2012-03-14 00:52:00
8:52 PM,57.0,44.1,62,30.01,10.0,SE,8.1,-,N/A,,Clear,130,2012-03-14 01:52:00
9:52 PM,53.1,44.1,71,30.01,10.0,SE,10.4,-,N/A,,Clear,140,2012-03-14 02:52:00
10:52 PM,52.0,43.0,71,30.01,10.0,SE,9.2,-,N/A,,Clear,130,2012-03-14 03:52:00
11:52 PM,51.1,42.1,71,29.99,10.0,SSE,9.2,-,N/A,,Clear,150,2012-03-14 04:52:00